Preview of NWS' New Version of Forecast
This preview is not operational and should not be used for support decisions.

Regional Weather Roundup (RWR)

Issued by National Weather Service (NWS)

                            
000
ASUS43 KDTX 230110
RWRMI 
MICHIGAN HOURLY REGIONAL WEATHER ROUNDUP
NATIONAL WEATHER SERVICE DETROIT/PONTIAC MI
900 PM EDT MON JUL 22 2019

NOTE: "FAIR" INDICATES FEW OR NO CLOUDS BELOW 12,000 FEET WITH NO
SIGNIFICANT WEATHER AND/OR OBSTRUCTION TO VISIBILITY.

MIZ047>049-052>055-059>063-066>070-074>076-081>083-230200-
SOUTHEAST LOWER MICHIGAN
  
CITY           SKY/WX    TMP DP  RH WIND       PRES   REMARKS
ADRIAN         FAIR      67  57  70 N6        30.00R                  
ALMA           FAIR      71  45  39 NW8       30.03R                  
ANN ARBOR        N/A    N/A N/A N/A MISG      29.99R                  
BAD AXE        FAIR      65  51  60 CALM      29.99R                  
CARO           FAIR      67  53  61 CALM      29.99S                  
DETROIT CITY   FAIR      72  50  45 N9        29.97R                  
DETROIT        FAIR      71  53  52 N9        29.98R                  
FLINT          FAIR      71  53  52 NE7       30.00R                  
GROSSE ILE     FAIR      71  53  53 N8        29.96S                  
HILLSDALE      FAIR      68  56  65 CALM      30.01R                  
HOWELL         FAIR      69  53  55 CALM      30.00S                  

CITY           SKY/WX    TMP DP  RH WIND       PRES   REMARKS
JACKSON        MOCLDY    71  57  61 N6        30.01R                  
LAMBERTVILLE   FAIR      68  60  75 CALM      29.97R                  
LANSING        FAIR      71  50  47 N6        30.01R                  
LAPEER         FAIR      68  47  46 N3        30.00S                  
MASON          FAIR      70  59  67 NE3       30.01R                  
MONROE         FAIR      71  59  65 N5        29.97R                  
MT. CLEMENS    PTCLDY    72  48  43 N12       29.97R                  
PONTIAC        FAIR      69  51  52 N8        29.98R                  
PORT HOPE        N/A     70  53  54 VRB5      29.97R                  
PORT HURON     FAIR      66  50  55 N3        29.98R                  
TRI CITIES     FAIR      71  57  61 NE3       30.01R                  
MIDLAND        FAIR      67  60  78 CALM      30.00R                  
TROY           FAIR      71  48  44 N5        30.00S                  
SAGINAW HB     FAIR      70  54  56 CALM      30.00R                  
$$
MIZ043>046-050>051-056>058-064>065-071>073-077>080-230200-
SOUTHWEST LOWER MICHIGAN
  
CITY           SKY/WX    TMP DP  RH WIND       PRES   REMARKS
BATTLE CREEK   FAIR      71  53  52 N7        30.02R                  
BENTON HARBOR  FAIR      67  53  61 VRB3      30.05R                  
BIG RAPIDS     FAIR      69  44  41 NW10      30.05R                  
COLDWATER      MOCLDY    70  59  69 NW3       30.01S                  
FREMONT        FAIR      66  47  50 NW6       30.05S                  
HOLLAND        FAIR      70  52  52 NW8       30.05R                  
GRAND RAPIDS   FAIR      70  47  43 N9        30.03R                  
KALAMAZOO      FAIR      71  56  58 NW10      30.02R                  
LUDINGTON      MOCLDY    64  56  75 CALM      30.05F                  
MARSHALL       FAIR      72  55  54 CALM      30.01R                  
MOUNT PLEASANT FAIR      70  47  44 NW3       30.02R                  
MUSKEGON       FAIR      70  47  43 N9        30.06R                  
SOUTH HAVEN    FAIR      67  53  59 N12       30.05S                  
$$
MIZ016>042-230200-
NORTHERN LOWER MICHIGAN
  
CITY           SKY/WX    TMP DP  RH WIND       PRES   REMARKS
ALPENA         MOCLDY    71  50  47 NW9       29.99R                  
BEAVER ISLAND  FAIR      65  47  52 NW3       30.04S                  
BELLAIRE       FAIR      70  53  55 W5        30.04R                  
CADILLAC       FAIR      67  46  46 NW3       30.05S                  
CHARLEVOIX     FAIR      69  55  60 NW7       30.06S                  
FRANKFORT      FAIR      67  56  68 CALM      30.05S                  
GAYLORD        FAIR      66  49  54 W5        30.04R                  
GRAYLING       FAIR      65  49  56 NW6       30.03R                  
HARBOR SPRINGS FAIR      68  49  50 NW3       30.02S                  
HOUGHTON LAKE  FAIR      68  48  48 NW9       30.04R                  
MANISTEE       FAIR      66  55  67 CALM      30.05R                  
OSCODA         FAIR      69  52  56 CALM      29.98R                  
PELLSTON       FAIR      68  43  40 N10       30.03R                  
ROGERS CITY    FAIR      66  50  56 NW9       30.01R                  
TRAVERSE CITY  FAIR      72  50  45 NW8       30.03R                  
$$
MIZ007>008-015-230200-
EASTERN UPPER MICHIGAN
  
CITY           SKY/WX    TMP DP  RH WIND       PRES   REMARKS
KINROSS        FAIR      64  47  53 NW9       30.01S                  
MACKINAC ISLAN FAIR      66  42  42 NW7       30.02R                  
NEWBERRY       FAIR      64  43  46 NW6       30.02S                  
S. S. MARIE    FAIR      60  47  61 NW9       30.01S                  
MUNISING         N/A     67  50  54 W5        30.03F                  
$$
MIZ004>006-011>014-085-230200-
CENTRAL UPPER MICHIGAN
  
CITY           SKY/WX    TMP DP  RH WIND       PRES   REMARKS
MANISTIQUE     FAIR      65  46  51 NW6       30.03S                  
ESCANABA       FAIR      70  49  47 NW3       30.05S                  
MENOMINEE      FAIR      72  51  47 E3        30.07R                  
SAWYER-GWINN   CLEAR     68  46  45 NW6       30.06S                  
$$
MIZ001>003-009>011-084-230200-
WESTERN UPPER MICHIGAN
  
CITY           SKY/WX    TMP DP  RH WIND       PRES   REMARKS
IRON MOUNTAIN  FAIR      69  48  47 NW5       30.08R                  
HOUGHTON       FAIR      68  54  60 W13       30.06S                  
COPPER HARBOR    N/A     70  50  49 NW6       30.03S                  
IRONWOOD       CLOUDY    69  59  70 W5        30.12R                  
$$

ABBREVIATIONS USED IN REMARKS
   TC - TEMPERATURE IN CELSIUS
  WCI - WIND CHILL INDEX
   HX - HEAT INDEX
  VSB - VISIBILITY